CZ-6A DEB, 54283

Orbit data source: Space-Track

CZ-6A DEB, 54283 is space debris in SSO originally from a launch on Fri, 11 Nov 2022 UTC launched from the Taiyaun Space Center, China (TSC). Debris objects in space refer to the collection of defunct objects orbiting the Earth. Examples of debris include non-operational satellites, rocket bodies, and fragments generated from explosions, collisions, or faulty payload assembly.

Loading next visibility...
Identifier
54283, 2022-151AA
Orbit
SSO
Last TLE update
3 hours ago
Origin
Manufacturer
SAST
Mission
Spacecraft
Bus & Motor
Unknown
Mass
Unknown
Launch date (UTC)
2022-11-11 (3 years ago)
Launch vehicle
Unknown
Launch site
Taiyaun Space Center, China (TSC)
Object type
Payload
Rocket body
Debris
Shape & HBR
Unknown
Radar Cross Section
Small (<0.1 m²)

Expand to show TLE details & history

TLE from 3 hours ago
0 CZ-6A DEB
1 54283U 22151AA  25133.54433509  .00000263  00000-0  17517-3 0  9995
2 54283  98.8135 131.7103 0053604  40.8790 319.6381 14.08736108128022
Epoch: 2025-05-13T13:03Z
Definitive object data (Epoch: 2025-05-13T13:03:50.551Z)
Latitude
-0.00006°
Longitude
64.20814°
Altitude
837.099 km
Speed
7.449 km/s
True Right ascension
08h 46m 50s
True Declination
0° 00' 00"
Sunlit
Object was in daylight at TLE epoch
Visualization TLE readout
Latitude
-52.47678°
Longitude
75.9225°
Altitude
886.29 km
Speed
7.407 km/s
Apparent Right ascension
11h 11m 31s
Apparent Declination
-48° 50' 01"
Sunlit
Object is in daylight
Visualization observer readout
Local Sidereal Time
00:39:32
Azimuth
126.992° SE
Elevation
-72.016°
Doppler factor
1
Orbital elements
Apogee altitude
899.683 km
Perigee altitude
822.074 km
Semi-major axis
7,239.016 km
Eccentricity
0.0053604
Inclination
98.8135°
RAAN
131.7103°
Arg. of periapsis
40.879°
True anomaly
319.23826°
Mean anomaly
319.6381°
Eccentric anomaly
319.43839°
Mean motion
3.5239 °/min
BSTAR
0.00017517
Orbital period
102.16 mins
Loading maneuver chart data...
Loading SW <> Apogee altitude chart data...
Loading historical data...
Loading historical data...
Loading historical data...
Loading historical data...
Loading historical data...
Loading historical data...
Loading historical data...

CZ-6A DEB Visibility forecast

Observer location: undefined°, undefined°

Span
Click to sort rows by Start time (UTC) header in descending order
Start Az.
Max El. time (UTC)
Max El. Az.
Max El.
End time (UTC)
End Az.
10 mins2025-05-13 23:24:19.600Z148.363° SSE2025-05-13 23:29:19.600Z65.095° ENE39.969°2025-05-13 23:34:19.600Z355.04° N
5 mins2025-05-14 01:08:19.600Z239.921° WSW2025-05-14 01:10:19.600Z265.405° W16.351°2025-05-14 01:13:19.600Z302.54° NW
7 mins2025-05-14 11:50:19.600Z50.817° ENE2025-05-14 11:53:19.600Z96.031° ESE25.328°2025-05-14 11:57:19.600Z149.186° SSE
9 mins2025-05-14 13:30:19.600Z351.928° N2025-05-14 13:34:19.600Z290.667° WNW31.738°2025-05-14 13:39:19.600Z225.656° WSW
|